Weather in Burchmullo

Uzbekistan     41°36′00″N   70°06′04″E
temp.,
°C
wind,
m/s
gust,
m/s
humid.,
%
clouds,
%
prec.,
mm/h
press.,
hPa
HPBL,
m
21 april, wed
wed2123:00+6wsw4695100 6.9 1013605
02:00+7sw3787100 3.0 1012524
05:00+6wsw579099 8.8 1013401
08:00+5wsw458594 2.3 1016645
11:00+7wsw466725 3.5 10181302
14:00+7w456510 0.9 10181170
17:00+7w34574 1.1 10191441
20:00+3sw22801 0.0 102121
22 april, thu
thu2223:00+2s11853 0.0 102212
02:00+1e11843 0.0 102313
05:00+1e22750 0.0 102414
08:00+5nnw11500 0.0 1024397
11:00+8nw22430 0.0 1024988
14:00+11wnw32472 0.0 10241101
17:00+10wnw32584 0.0 1025779
20:00+6ese11790 0.0 102610
23 april, fri
fri2323:00+5ese11720 0.0 102510
02:00+5ese22650 0.0 102411
05:00+4ese22600 0.0 102411
08:00+9ne11450 0.0 1024298
11:00+12wnw324045 0.0 10231224
14:00+13wnw3240100 0.0 10221339
17:00+12wnw214899 0.0 1021822
20:00+8ese11611 0.0 102211
24 april, sat
sat2423:00+7se32530 0.0 102217
02:00+6ese224875 0.0 102112
05:00+6ese324497 0.0 102014
08:00+11ene113892 0.0 1020187
11:00+14wnw2230100 0.0 1020931
14:00+15wnw3234100 0.0 10201188
17:00+13nw2143100 0.0 1020452
20:00+9sse115692 0.0 102210
25 april, sun
sun2523:00+8se2256100 0.0 102211
02:00+8ese225393 0.0 102111
05:00+7ese223894 0.0 102112
08:00+13e112948 0.0 1021166
11:00+17wnw222256 0.0 10211011
14:00+18wnw3229100 0.0 10201347
17:00+16w113815 0.0 1020773
20:00+11ese21565 0.0 102111